Zurück zum Katalog

STARLINK-34129

AktivKommunikationVLEO
NORAD 64138·PAYLOAD·🇺🇸 United States

Gestartet May 24, 2025 von Cape Canaveral Space Force Station

Loading…

Nächste Überflüge (nächste 24 Stunden)

TLE

AktuellSource: CelesTrak SupGP

Epoche: Sep 14, 2026, 20:37 UTC

1 64138C 25111R   26257.85951389 -.00016488  00000+0 -59724-3 0  2577
2 64138  43.0021  89.7550 0001576 272.4216  26.8416 15.27583616    13

Verfolge STARLINK-34129 in Echtzeit mit AllMySat

Download on the App Store